Details From TFFF - Le Lamentin
To TFFR - Pointe A Pitre Le Raizet
Flight Number -
Tags Generated
Created
Modified
Stats Distance 105 nm / 195 km
Max Altitude 0 ft / 0 m
Waypoints 2
Social Downloads 1
Likes 0
Share VATSIM

Download

Looking for another format? Having issues loading an existing format? Contact us
Advertisement - Login to hide

Notes

Generated

Route

TFFF TFFR

ID Type Via Altitude Latitude Longitude Leg Dist Tot Dist Heading (true) Name
O TFFF APT - 0 ft / 0 m 14.58843˚ -61.01831˚ - 0 nm - -
O TFFR APT - 0 ft / 0 m 16.26830˚ -61.54794˚ 105 nm 105 nm 343° / 343° -

Altitude Profile

Advertisement - Login to hide

TFFF

Details ICAO TFFF (FDF)
Name Martinique/Aime Cesaire Intl
Region France (Guadeloupe, Martinique, Saint Barthélemy, Saint Martin)
Timezone America/Martinique (UTC-4.0)
Stats Elevation 16 ft / 5 m (AMSL)
Location 14.591032° -61.003173°
Runways 1
Magnetic Variation 15.048° W

METAR

TFFF 221630Z AUTO 13009KT 100V170 9999 BKN030 BKN040 32/24 Q1013 TEMPO 4000 SHRA SCT020TCU

Decode

TAF

TAF TFFF 220500Z 2206/2306 09006KT 9999 SCT028 SCT055 PROB30 TEMPO 2206/2220 4000 SHRA SCT018TCU

Decode

Departure Runways

ID Width Length Bearing (true) Bearing (mag) Surface Threshold Offset Overrun Length
09 148 ft / 45 m 9,852 ft / 3,003 m 79.93° 94.98° Asphalt 0 ft / 0 m 0 ft / 0 m
27 148 ft / 45 m 9,852 ft / 3,003 m 259.94° 274.99° Asphalt 820 ft / 250 m 948 ft / 289 m

TFFR

Details ICAO TFFR (PTP)
Name Pointe a Pitre Le Raizet
Region France (Guadeloupe, Martinique, Saint Barthélemy, Saint Martin)
Timezone America/Guadeloupe (UTC-4.0)
Stats Elevation 35 ft / 11 m (AMSL)
Location 16.265306° -61.531808°
Runways 1
Magnetic Variation 14.849° W

METAR

TFFR 221630Z AUTO 14008KT 9000 BKN024/// BKN032/// BKN040/// ///CB 29/27 Q1014 TEMPO 2000 TSRA

Decode

TAF

TAF TFFR 220500Z 2206/2306 07006KT 9999 SCT025 BKN050 PROB40 TEMPO 2206/2222 4000 SHRA SCT020TCU PROB30 TEMPO 2216/2221 2000 TSRA FEW015CB

Decode

Destination Runways

ID Width Length Bearing (true) Bearing (mag) Surface Threshold Offset Overrun Length
11 148 ft / 45 m 11,513 ft / 3,509 m 100.94° 115.79° Asphalt 0 ft / 0 m 0 ft / 0 m
29 148 ft / 45 m 11,513 ft / 3,509 m 280.95° 295.80° Asphalt 0 ft / 0 m 0 ft / 0 m

Approach Navaids

Runway Type Ident Frequency Range Bearing (true) Bearing (mag) Slope Elevation
11 Localiser PP 110.30 MHz 18 nm / 33 km 100.95° 115.80° - 36 ft / 11 m (AMSL)
11 Glidescope PP 110.30 MHz 10 nm / 19 km 100.94° 115.79° 3.20° 36 ft / 11 m (AMSL)

Popular Alternatives